Flag for Japan Weather past 2 weeks in Hamamatsu, Japan

Now
78 °F

Warm.


Feels Like: 80 °F
Forecast: 65 / 81 °F
Wind: 15 mph from West

Location: Omaezaki

Current Time: Sep 4, 2015 at 10:06:28 PM

Latest Report: Sep 4, 2015 at 9:00 PM


Visibility: 11 mi

Pressure: 29.82 "Hg

Humidity: 84%

Dew point: 73 °F

Location of HamamatsuLocation

Historic Weather in Hamamatsu — Graph

°F

Hamamatsu temperature yesterday

Maximum temperature yesterday: 82 °F (at 11:00 AM)
Minimum temperature yesterday: 73 °F (at 5:00 PM)
Average temperature yesterday: 77 °F

Past Weeks' High & Low Weather Summary

 TemperatureHumidityPressure
High87 °F (Aug 22, 2:00 PM)99% (Sep 1, 10:00 AM)30.00 "Hg (Sep 1, 10:00 AM)
Low69 °F (Aug 25, 9:00 PM)64% (Aug 24, 2:00 PM)29.50 "Hg (Aug 22, 4:00 PM)
Average78 °F85%29.79 "Hg
* Reported Aug 20 8:00 PM — Sep 4 8:00 PM, Hamamatsu, Weather by CustomWeather, © 2015

Note: Actual official high and low records may vary slightly from our data, if they occured in-between our weather recording intervals... More about our weather records

Advertising

Hamamatsu weather history for previous 24 hours

 ConditionsComfort  
Time TempWeatherWind HumidityBarometerVisibility
8:00 PM
Fri, Sep 4
78 °FWarm.14 mph82%29.82 "Hg9 mi
7:00 PM78 °FWarm.15 mph78%29.80 "Hg8 mi
6:00 PM79 °FWarm.17 mph77%29.78 "Hg8 mi
5:00 PM81 °FWarm.16 mph74%29.78 "Hg7 mi
4:00 PM83 °FWarm.15 mph67%29.77 "Hg8 mi
3:00 PM84 °FWarm.14 mph65%29.77 "Hg9 mi
2:00 PM84 °FWarm.15 mph67%29.78 "Hg9 mi
1:00 PM82 °FWarm.20 mph67%29.79 "Hg9 mi
12:00 PM82 °FWarm.20 mph71%29.80 "Hg7 mi
11:00 AM81 °FWarm.18 mph73%29.81 "Hg8 mi
10:00 AM80 °FWarm.17 mph77%29.81 "Hg11 mi
9:00 AM79 °FWarm.15 mph80%29.80 "Hg12 mi
8:00 AM76 °FMild.15 mph85%29.80 "Hg12 mi
7:00 AM75 °FMild.14 mph90%29.80 "Hg12 mi
6:00 AM74 °FMild.9 mph97%29.80 "Hg7 mi
5:00 AM73 °FFog.10 mph98%29.78 "Hg5 mi
4:00 AM74 °FMild.10 mph98%29.78 "Hg12 mi
3:00 AM73 °FMild.6 mph99%29.78 "Hg6 mi
2:00 AM73 °FMild.2 mph99%29.78 "Hg9 mi
1:00 AM73 °FRain. Overcast.3 mph98%29.79 "Hg3 mi
12:00 AM74 °FLight rain. Overcast.9 mph94%29.82 "Hg7 mi
11:00 PM
Thu, Sep 3
75 °FRain. Overcast.17 mph94%29.84 "Hg1 mi
10:00 PM77 °FLight rain. Overcast.21 mph91%29.82 "Hg11 mi
Weather by CustomWeather, © 2015

See weather overviewHow to use our weather pages